Location: Krakow
(50.0830°N, 19.9170°E)
Time: 06:44:16
(UTC+01:00)

S-56A Canister/Altair - All Passes

Search period start: 30 January 2023 00:00
Search period end: 09 February 2023 00:00
Orbit: 639 x 2493 km, 38.9° (Epoch: 29 January)

Date Brightness Start Highest point End Pass type
(mag) Time Alt. Az. Time Alt. Az. Time Alt. Az.
30 Jan - 10:59:11 10° SSE 11:00:54 11° SE 11:02:44 10° SE daylight
30 Jan - 12:58:17 10° SW 13:03:12 29° SSE 13:09:51 10° ESE daylight
30 Jan - 15:00:23 10° WSW 15:06:28 35° S 15:15:08 10° SE daylight
30 Jan - 17:03:50 10° WSW 17:10:15 24° SSW 17:18:41 10° SSE visible
31 Jan - 12:26:08 10° SW 12:30:36 26° SSE 12:36:28 10° ESE daylight
31 Jan - 14:28:02 10° WSW 14:33:41 34° S 14:41:42 10° ESE daylight
31 Jan - 16:31:14 10° WSW 16:37:21 25° SSW 16:45:27 10° SSE daylight
01 Feb - 11:54:00 10° SSW 11:58:02 23° SSE 12:03:08 10° ESE daylight
01 Feb - 13:55:42 10° WSW 14:00:58 33° S 14:08:19 10° ESE daylight
01 Feb - 15:58:43 10° WSW 16:04:29 25° SSW 16:12:13 10° SSE daylight
01 Feb - 18:05:59 10° SW 18:08:07 11° SW 18:10:24 10° SSW visible
02 Feb - 11:21:55 10° SSW 11:25:31 20° SSE 11:29:51 10° ESE daylight
02 Feb - 13:23:24 10° WSW 13:28:18 31° S 13:34:59 10° ESE daylight
02 Feb - 15:26:14 10° WSW 15:31:41 25° SSW 15:38:59 10° SSE daylight
02 Feb - 17:32:31 10° SW 17:35:15 12° SSW 17:38:16 10° SSW visible
03 Feb - 10:49:54 10° SSW 10:53:01 17° SSE 10:56:36 10° ESE daylight
03 Feb - 12:51:06 10° SW 12:55:40 29° S 13:01:44 10° ESE daylight
03 Feb - 14:53:48 10° WSW 14:58:55 25° SSW 15:05:45 10° SE daylight
03 Feb - 16:59:23 10° SW 17:02:25 12° SSW 17:05:49 10° S visible
04 Feb - 10:17:57 10° S 10:20:32 15° SSE 10:23:20 10° ESE daylight
04 Feb - 12:18:49 10° SW 12:23:04 27° S 12:28:33 10° ESE daylight
04 Feb - 14:21:24 10° WSW 14:26:12 25° SSW 14:32:34 10° SE daylight
04 Feb - 16:26:28 10° SW 16:29:37 13° SSW 16:33:11 10° S daylight
05 Feb - 09:46:10 10° S 09:48:02 12° SSE 09:49:59 10° SE daylight
05 Feb - 11:46:34 10° SW 11:50:31 25° S 11:55:25 10° ESE daylight
05 Feb - 13:49:01 10° WSW 13:53:31 24° S 13:59:24 10° SE daylight
05 Feb - 15:53:41 10° SW 15:56:50 13° SSW 16:00:29 10° S daylight
06 Feb - 09:14:56 10° SSE 09:15:32 10° SSE 09:16:09 10° SE daylight
06 Feb - 11:14:17 10° SW 11:17:59 23° S 11:22:22 10° ESE daylight
06 Feb - 13:16:39 10° WSW 13:20:53 24° S 13:26:18 10° SE daylight
06 Feb - 15:20:59 10° SW 15:24:05 14° SSW 15:27:43 10° S daylight
07 Feb - 10:42:01 10° SW 10:45:28 21° SSE 10:49:23 10° ESE daylight
07 Feb - 12:44:17 10° WSW 12:48:16 23° S 12:53:16 10° SE daylight
07 Feb - 14:48:22 10° SW 14:51:24 14° SSW 14:54:56 10° S daylight
08 Feb - 10:09:43 10° SSW 10:12:58 19° SSE 10:16:28 10° ESE daylight
08 Feb - 12:11:55 10° WSW 12:15:42 23° S 12:20:18 10° SE daylight
08 Feb - 14:15:47 10° SW 14:18:44 14° SSW 14:22:09 10° S daylight
